Weather History for Baltimore Martin, MD

Change the Weather History Date:

Friday, May 11, 2012

  Actual Average Record
Temperature  
Mean Temperature 58 °F -  
Max Temperature 71 °F 69 °F 86 °F (2004)
Min Temperature 46 °F 53 °F 42 °F (2008)
Degree Days  
Heating Degree Days 6    
Growing Degree Days 8 (Base 50)    
Moisture  
Dew Point 36 °F    
Average Humidity 38    
Maximum Humidity 76    
Minimum Humidity 27    
Precipitation  
Precipitation 0.00 in - - ()
Sea Level Pressure  
Sea Level Pressure 30.05 in    
Wind  
Wind Speed 6 mph (West)    
Max Wind Speed 18 mph    
Max Gust Speed 25 mph    
Visibility 10 miles    
Events      
Averages and records for this station are not official NWS values.
T = Trace of Precipitation, MM = Missing Value Source: NWS Daily Summary

Daily Weather History Graph

Daily Weather History Graph

Search for Another Location

Airport:

Trip Planner

Search our weather history database for the weather conditions in past years. The results will help you decide how hot, cold, wet, or windy it might be!

Date:

Astronomy

May. 11, 2012 Rise Set
Actual Time 5:55 AM EDT 8:09 PM EDT
Civil Twilight 5:25 AM EDT 8:39 PM EDT
Nautical Twilight 4:48 AM EDT 9:16 PM EDT
Astronomical Twilight 4:08 AM EDT 9:56 PM EDT
Moon 12:47 AM EDT (5/11) 11:25 AM EDT (5/11)
Length of Visible Light 15h 13m
Length of Day
14h 13m
Waning Gibbous, 63% of the Moon is Illuminated
May 11
Waning Gibbous
May 12
Last Quarter
May 20
New
May 28
First Quarter
Jun 4
Full

Hourly Weather History & Observations

Time (EDT) Temp. Windchill Dew Point Humidity Pressure Visibility Wind Dir Wind Speed Gust Speed Precip Events Conditions
12:15 AM - - - N/A% 29.94 in 10.0 mi WSW 8.1 mph - N/A   Clear
12:35 AM - - - N/A% 29.95 in 10.0 mi WSW 5.8 mph - N/A   Clear
12:55 AM - - - N/A% 29.96 in 10.0 mi WSW 3.5 mph - N/A   Clear
1:20 AM - - - N/A% 29.96 in 10.0 mi Calm Calm - N/A   Clear
1:40 AM - - - N/A% 29.97 in 10.0 mi Calm Calm - N/A   Clear
2:00 AM - - - N/A% 29.97 in 10.0 mi WSW 3.5 mph - N/A   Clear
2:20 AM - - - N/A% 29.97 in 10.0 mi WSW 4.6 mph - N/A   Clear
2:45 AM - - - N/A% 29.97 in 10.0 mi West 4.6 mph - N/A   Clear
3:05 AM - - - N/A% 29.98 in 10.0 mi WSW 4.6 mph - N/A   Clear
3:25 AM - - - N/A% 29.98 in 10.0 mi WSW 5.8 mph - N/A   Clear
3:45 AM - - - N/A% 29.99 in 10.0 mi WSW 6.9 mph - N/A   Clear
4:10 AM - - - N/A% 29.99 in 10.0 mi WSW 4.6 mph - N/A   Clear
4:30 AM - - - N/A% 30.00 in 10.0 mi Calm Calm - N/A   Clear
4:50 AM - - - N/A% 30.00 in 10.0 mi West 3.5 mph - N/A   Clear
5:10 AM - - - N/A% 30.01 in 10.0 mi West 4.6 mph - N/A   Clear
5:25 AM - - - N/A% 30.02 in 10.0 mi West 3.5 mph - N/A   Clear
5:55 AM 46.4 °F 42.9 °F 37.4 °F 71% 30.04 in 10.0 mi WNW 6.9 mph - N/A   Clear
6:50 AM 46.4 °F 41.9 °F 39.2 °F 76% 30.07 in 10.0 mi WNW 9.2 mph - N/A   Clear
7:45 AM 53.6 °F - 39.2 °F 58% 30.10 in 10.0 mi WNW 11.5 mph - N/A   Clear
8:50 AM 59.0 °F - 37.4 °F 45% 30.11 in 10.0 mi WNW 9.2 mph - N/A   Clear
9:50 AM 62.6 °F - 35.6 °F 37% 30.12 in 10.0 mi West 10.4 mph - N/A   Clear
10:45 AM 66.2 °F - 35.6 °F 32% 30.11 in 10.0 mi West 15.0 mph 19.6 mph N/A   Clear
11:45 AM 68.0 °F - 33.8 °F 28% 30.10 in 10.0 mi West 10.4 mph 24.2 mph N/A   Scattered Clouds
12:45 PM 69.8 °F - 35.6 °F 28% 30.09 in 10.0 mi NW 11.5 mph 24.2 mph N/A   Scattered Clouds
1:54 PM 71.6 °F - 35.6 °F 27% 30.09 in 10.0 mi WNW 18.4 mph 25.3 mph N/A   Scattered Clouds
2:54 PM 71.6 °F - 35.6 °F 27% 30.09 in 10.0 mi WNW 15.0 mph 24.2 mph N/A   Scattered Clouds
3:54 PM 71.6 °F - 35.6 °F 27% 30.08 in 10.0 mi West 17.3 mph 25.3 mph N/A   Scattered Clouds
4:45 PM 71.6 °F - 35.6 °F 27% 30.08 in 10.0 mi WNW 17.3 mph 23.0 mph N/A   Scattered Clouds
6:45 PM 71.6 °F - 35.6 °F 27% 30.09 in 10.0 mi West 13.8 mph 20.7 mph N/A   Partly Cloudy
8:55 PM 68.0 °F - 35.6 °F 30% 30.13 in 10.0 mi WSW 3.5 mph - N/A   Clear
9:45 PM 66.2 °F - 39.2 °F 37% 30.15 in 10.0 mi WSW 3.5 mph - N/A   Clear
10:10 PM - - - N/A% 30.16 in 10.0 mi SW 3.5 mph - N/A   Clear
10:35 PM - - - N/A% 30.16 in 10.0 mi WSW 3.5 mph - N/A   Clear
10:55 PM - - - N/A% 30.16 in 10.0 mi SSW 3.5 mph - N/A   Clear
11:15 PM - - - N/A% 30.17 in 10.0 mi WSW 4.6 mph - N/A   Clear
11:35 PM - - - N/A% 30.17 in 10.0 mi SW 3.5 mph - N/A   Clear